YT1XN Weather Reports


time (UTC)temp
C
wind
direction
speed
KPH
gust
KPH
rain 1hr
cm
rain 24hr
cm
rain mn
cm
humidity
%
barometer
mb
20260505084003 22 160 1.6 4.8 0.00 0.00 0.00 47 1016.2
20260505083502 22 174 1.6 3.2 0.00 0.00 0.00 48 1016.3
20260505083000 21 165 1.6 4.8 0.00 0.00 0.00 49 1016.3
20260505081503 21 238 1.6 6.4 0.00 0.00 0.00 54 1016.3
20260505081003 20 286 1.6 6.4 0.00 0.00 0.00 55 1016.4
20260505080503 20 168 1.6 4.8 0.00 0.00 0.00 56 1016.4
20260505080004 20 138 1.6 8.0 0.00 0.00 0.00 56 1016.4
20260505075003 19 250 3.2 6.4 0.00 0.00 0.00 57 1016.4
20260505074502 19 271 4.8 8.0 0.00 0.00 0.00 58 1016.4
20260505074003 19 224 6.4 12.9 0.00 0.00 0.00 57 1016.4
20260505073503 18 232 8.0 14.5 0.00 0.00 0.00 59 1016.4
20260505073002 18 238 6.4 14.5 0.00 0.00 0.00 58 1016.4
20260505072003 18 247 1.6 6.4 0.00 0.00 0.00 60 1016.4
20260505071503 17 214 1.6 6.4 0.00 0.00 0.00 60 1016.3
20260505071003 17 214 3.2 6.4 0.00 0.00 0.00 62 1016.3
20260505070503 17 202 3.2 8.0 0.00 0.00 0.00 62 1016.3
20260505065003 16 236 1.6 8.0 0.00 0.00 0.00 65 1016.4
20260505064503 16 215 1.6 4.8 0.00 0.00 0.00 64 1016.4
20260505064003 16 129 3.2 4.8 0.00 0.00 0.00 63 1016.4
20260505063503 16 146 3.2 6.4 0.00 0.00 0.00 63 1016.3
20260505063003 15 159 3.2 6.4 0.00 0.00 0.00 65 1016.3
20260505062003 13 123 1.6 4.8 0.00 0.00 0.00 67 1016.3
20260505061502 13 79 0.0 3.2 0.00 0.00 0.00 72 1016.3
20260505060459 12 238 1.6 3.2 0.00 0.00 0.00 71 1016.3
20260505060004 12 242 3.2 3.2 0.00 0.00 0.00 71 1016.3
20260505055003 12 250 3.2 4.8 0.00 0.00 0.00 72 1016.3
20260505054503 12 238 3.2 4.8 0.00 0.00 0.00 73 1016.3
20260505054003 12 265 3.2 6.4 0.00 0.00 0.00 71 1016.3
20260505053502 12 252 3.2 6.4 0.00 0.00 0.00 70 1016.3
20260505053003 12 252 1.6 4.8 0.00 0.00 0.00 70 1016.2
20260505052503 12 182 1.6 4.8 0.00 0.00 0.00 67 1016.1
20260505052003 11 156 1.6 4.8 0.00 0.00 0.00 67 1016.0
20260505051503 11 257 1.6 4.8 0.00 0.00 0.00 68 1016.0
20260505051003 12 267 3.2 4.8 0.00 0.00 0.00 67 1016.1
20260505050503 13 232 3.2 6.4 0.00 0.00 0.00 65 1016.0
20260505041503 14 167 6.4 11.3 0.00 0.00 0.00 58 1015.8
20260505041003 13 146 4.8 11.3 0.00 0.00 0.00 58 1015.8
20260505040503 13 182 3.2 8.0 0.00 0.00 0.00 59 1015.8
20260505040002 13 163 3.2 9.7 0.00 0.00 0.00 59 1015.7
20260505035503 13 167 3.2 9.7 0.00 0.00 0.00 58 1015.8
20260505035003 14 134 1.6 6.4 0.00 0.00 0.00 58 1015.8
20260505034002 15 148 6.4 12.9 0.00 0.00 0.00 55 1015.7
20260505033502 14 125 6.4 12.9 0.00 0.00 0.00 55 1015.7
20260505033003 14 139 4.8 11.3 0.00 0.00 0.00 55 1015.6
20260505032002 14 138 3.2 8.0 0.00 0.00 0.00 56 1015.6
20260505031503 14 132 3.2 6.4 0.00 0.00 0.00 56 1015.6
20260505031000 14 135 1.6 6.4 0.00 0.00 0.00 57 1015.6
20260505030505 14 134 1.6 4.8 0.00 0.00 0.00 57 1015.7
20260505030004 14 138 1.6 8.0 0.00 0.00 0.00 56 1015.7
20260505024500 14 86 3.2 6.4 0.00 0.00 0.00 57 1015.8
20260505024002 14 84 4.8 6.4 0.00 0.00 0.00 57 1015.8
20260505023503 14 88 6.4 9.7 0.00 0.00 0.00 57 1015.8
20260505023002 14 92 6.4 9.7 0.00 0.00 0.00 57 1015.8
20260505022503 14 88 6.4 9.7 0.00 0.00 0.00 57 1015.8
20260505022002 14 92 6.4 8.0 0.00 0.00 0.00 57 1015.9
20260505021502 14 84 4.8 9.7 0.00 0.00 0.00 57 1015.8
20260505021002 14 81 3.2 8.0 0.00 0.00 0.00 57 1015.9
20260505020459 14 98 3.2 6.4 0.00 0.00 0.00 57 1016.0
20260505015959 14 93 3.2 6.4 0.00 0.00 0.00 57 1016.1
20260505015500 14 90 4.8 6.4 0.00 0.00 0.00 57 1016.0
20260505014958 14 88 4.8 6.4 0.00 0.00 0.00 57 1016.0
20260505014500 14 98 4.8 9.7 0.00 0.00 0.00 57 1016.0
20260505014000 14 88 6.4 11.3 0.00 0.00 0.00 57 1016.0
20260505013503 14 83 6.4 11.3 0.00 0.00 0.00 57 1016.1
20260505013000 14 83 6.4 9.7 0.00 0.00 0.00 57 1016.1
20260505012459 14 92 4.8 9.7 0.00 0.00 0.00 57 1016.1
20260505010000 14 84 6.4 11.3 0.00 0.00 0.00 57 1016.1
20260505005503 14 89 6.4 11.3 0.00 0.00 0.00 57 1016.1
20260505005003 14 86 6.4 9.7 0.00 0.00 0.00 57 1016.2
20260505004503 14 91 6.4 9.7 0.00 0.00 0.00 56 1016.3
20260505004003 14 90 6.4 9.7 0.00 0.00 0.00 56 1016.3
20260505003502 14 74 4.8 8.0 0.00 0.00 0.00 56 1016.4
20260505003003 15 70 3.2 9.7 0.00 0.00 0.00 56 1016.4
20260505002500 14 92 3.2 8.0 0.00 0.00 0.00 56 1016.5
20260505001959 14 88 3.2 8.0 0.00 0.00 0.00 56 1016.6
20260505000502 15 141 1.6 4.8 0.00 0.00 0.00 56 1016.7
20260505000003 15 139 1.6 8.0 0.00 0.00 0.00 56 1016.7
20260504235459 14 113 3.2 8.0 0.00 0.00 0.00 56 1016.8
20260504235001 14 121 3.2 8.0 0.00 0.00 0.00 56 1016.7
20260504234459 14 92 3.2 8.0 0.00 0.00 0.00 56 1016.7
20260504234000 14 90 3.2 6.4 0.00 0.00 0.00 57 1016.8
20260504233500 14 72 3.2 6.4 0.00 0.00 0.00 56 1016.8
20260504232959 15 88 3.2 6.4 0.00 0.00 0.00 56 1016.8
20260504232500 15 96 4.8 6.4 0.00 0.00 0.00 56 1016.9
20260504231503 14 97 4.8 8.0 0.00 0.00 0.00 56 1016.9
20260504230959 14 98 3.2 6.4 0.00 0.00 0.00 56 1016.9
20260504230503 15 96 3.2 6.4 0.00 0.00 0.00 56 1017.0
20260504225504 15 94 3.2 6.4 0.00 0.00 0.00 55 1017.0
20260504225002 15 89 3.2 4.8 0.00 0.00 0.00 55 1017.0
20260504224504 15 87 3.2 4.8 0.00 0.00 0.00 55 1017.1
20260504224004 15 98 1.6 4.8 0.00 0.00 0.00 54 1017.1
20260504223505 15 88 0.0 4.8 0.00 0.00 0.00 54 1017.1
20260504222005 16 132 4.8 9.7 0.00 0.00 0.00 52 1017.2
20260504221505 16 150 4.8 9.7 0.00 0.00 0.00 52 1017.3
20260504221003 16 164 3.2 9.7 0.00 0.00 0.00 53 1017.4
20260504220008 16 142 4.8 8.0 0.00 0.00 0.00 53 1017.4
20260504215503 16 160 4.8 8.0 0.00 0.00 0.00 52 1017.4
20260504214503 16 134 4.8 12.9 0.00 0.00 0.00 52 1017.1
20260504213503 16 136 3.2 8.0 0.00 0.00 0.00 51 1017.1
20260504213005 16 155 4.8 11.3 0.00 0.00 0.00 51 1017.1
20260504212503 16 126 6.4 12.9 0.00 0.00 0.00 51 1017.2
20260504212003 16 129 8.0 12.9 0.00 0.00 0.00 50 1017.1
20260504211503 16 146 8.0 12.9 0.00 0.00 0.00 50 1017.2
20260504211003 16 126 6.4 12.9 0.00 0.00 0.00 50 1017.3
20260504210004 16 142 3.2 8.0 0.00 0.00 0.00 50 1017.3
20260504205503 16 165 3.2 8.0 0.00 0.00 0.00 50 1017.4
20260504205002 16 128 1.6 6.4 0.00 0.00 0.00 49 1017.4
20260504204502 16 94 3.2 6.4 0.00 0.00 0.00 49 1017.2
20260504203503 16 95 4.8 9.7 0.00 0.00 0.00 49 1017.3
20260504203003 16 109 6.4 11.3 0.00 0.00 0.00 49 1017.3
20260504202503 16 90 8.0 11.3 0.00 0.00 0.00 49 1017.3
20260504202003 16 94 8.0 12.9 0.00 0.00 0.00 49 1017.3
20260504201503 16 84 8.0 12.9 0.00 0.00 0.00 49 1017.2
20260504201002 17 80 8.0 11.3 0.00 0.00 0.00 49 1017.3
20260504200004 17 88 6.4 11.3 0.00 0.00 0.00 48 1017.3
20260504195503 17 86 6.4 12.9 0.00 0.00 0.00 48 1017.3
20260504195003 17 82 6.4 12.9 0.00 0.00 0.00 48 1017.3
20260504194503 17 86 6.4 11.3 0.00 0.00 0.00 48 1017.4
20260504193503 17 84 6.4 11.3 0.00 0.00 0.00 48 1017.4
20260504192502 17 95 4.8 9.7 0.00 0.00 0.00 48 1017.4
20260504191503 17 96 4.8 9.7 0.00 0.00 0.00 48 1017.4
20260504191005 17 94 4.8 6.4 0.00 0.00 0.00 48 1017.4
20260504190503 17 84 4.8 6.4 0.00 0.00 0.00 49 1017.4
20260504190003 17 103 4.8 6.4 0.00 0.00 0.00 49 1017.4
20260504185503 18 90 4.8 6.4 0.00 0.00 0.00 49 1017.4
20260504185002 18 90 4.8 6.4 0.00 0.00 0.00 49 1017.4
20260504184503 18 94 4.8 6.4 0.00 0.00 0.00 49 1017.4
20260504184003 18 94 4.8 6.4 0.00 0.00 0.00 49 1017.2
20260504183503 18 90 4.8 9.7 0.00 0.00 0.00 49 1017.1
20260504182503 18 90 4.8 9.7 0.00 0.00 0.00 49 1017.1
20260504181503 19 92 4.8 6.4 0.00 0.00 0.00 49 1017.1
20260504181003 19 90 4.8 9.7 0.00 0.00 0.00 48 1017.1
20260504180503 20 89 4.8 9.7 0.00 0.00 0.00 48 1017.1
20260504180004 20 89 3.2 6.4 0.00 0.00 0.00 47 1017.0
20260504175504 20 91 3.2 6.4 0.00 0.00 0.00 47 1017.1
20260504174003 20 148 1.6 3.2 0.00 0.00 0.00 46 1017.1
20260504173503 20 148 1.6 3.2 0.00 0.00 0.00 45 1017.0
20260504172503 21 148 1.6 3.2 0.00 0.00 0.00 45 1016.9
20260504171503 21 109 1.6 3.2 0.00 0.00 0.00 44 1016.8
20260504171003 21 109 1.6 3.2 0.00 0.00 0.00 43 1016.9
20260504170502 21 109 1.6 3.2 0.00 0.00 0.00 43 1017.0
20260504150959 23 61 3.2 9.7 0.00 0.00 0.00 40 1017.4
20260504150502 23 5 4.8 14.5 0.00 0.00 0.00 37 1017.5
20260504141003 23 177 6.4 14.5 0.00 0.00 0.00 40 1017.7
20260504140503 23 134 8.0 17.7 0.00 0.00 0.00 37 1017.8
20260504130503 24 222 4.8 16.1 0.00 0.00 0.00 41 1018.6
20260504110459 23 229 1.6 6.4 0.00 0.00 0.00 43 1020.0
20260504100503 21 138 4.8 16.1 0.00 0.00 0.00 44 1020.6